This is the latest recevied weather packets stored in our database for station/object EA3DJ-10. If no packets are shown the sender has not sent any weather packets the latest 10 day(s).
| Time | Temp. | Humidity | Pressure | Rain* | Wind** | Luminosity | Snow |
|---|---|---|---|---|---|---|---|
| 1787677098 | 27.78° C | 40% | 1012.7 hPa | - | - | - | - |
| 1787675894 | 27.22° C | 40% | 1012.4 hPa | - | - | - | - |
| 1787674693 | 26.67° C | 40% | 1012.5 hPa | - | - | - | - |
| 1787673493 | 26.11° C | 39% | 1012.4 hPa | - | - | - | - |
| 1787672293 | 25.56° C | 38% | 1012.3 hPa | - | - | - | - |
| 1787671093 | 23.89° C | 41% | 1012.4 hPa | - | - | - | - |
| 1787669893 | 24.44° C | 42% | 1012.4 hPa | - | - | - | - |
| 1787668693 | 25.56° C | 43% | 1012.5 hPa | - | - | - | - |
| 1787667493 | 28.33° C | 41% | 1012.5 hPa | - | - | - | - |
| 1787666292 | 27.78° C | 41% | 1012.4 hPa | - | - | - | - |
| 1787665092 | 27.78° C | 41% | 1012.5 hPa | - | - | - | - |
| 1787663892 | 27.22° C | 40% | 1012.6 hPa | - | - | - | - |
| 1787662692 | 27.22° C | 40% | 1013 hPa | - | - | - | - |
| 1787661492 | 26.11° C | 39% | 1013.3 hPa | - | - | - | - |
| 1787660292 | 25° C | 41% | 1013.3 hPa | - | - | - | - |
| 1787659092 | 26.11° C | 42% | 1013.4 hPa | - | - | - | - |
| 1787657892 | 28.89° C | 41% | 1013.3 hPa | - | - | - | - |
| 1787656692 | 28.89° C | 41% | 1013.4 hPa | - | - | - | - |
| 1787655491 | 28.89° C | 42% | 1013.6 hPa | - | - | - | - |
| 1787654291 | 28.89° C | 41% | 1013.6 hPa | - | - | - | - |
| 1787653091 | 28.89° C | 41% | 1013.7 hPa | - | - | - | - |
| 1787651891 | 28.89° C | 41% | 1013.8 hPa | - | - | - | - |
| 1787650691 | 28.89° C | 41% | 1013.7 hPa | - | - | - | - |
| 1787649490 | 28.89° C | 42% | 1013.5 hPa | - | - | - | - |
| 1787648290 | 28.89° C | 42% | 1013.5 hPa | - | - | - | - |
* Rain since midnight (hover to see other rain measurements)
** Current wind speed in m/s (hover to see current wind gust speed)